User: anonymous   Login
Location: ????????
(55.8351°N, 38.7040°E)
Time: 10:17:44
(UTC+00:00)
Language:

ALOS - Orbit

View from above orbital plane
View from above orbital plane
View from above satellite
View from above satellite

Ground track
Ground track

The orbit data is extracted from the following two-line orbital elements,

1 28931U 06002A   24164.99308978  .00002425  00000-0  45302-3 0  9991
2 28931  98.0364 118.1407 0002161 112.9260 247.2172 14.65817000980732
Epoch (UTC): 12 June 2024 23:50:02
Eccentricity: 0.0002161
inclination: 98.0364°
perigee height: 673 km
apogee height: 676 km
right ascension of ascending node: 118.1407°
argument of perigee: 112.9260°
revolutions per day: 14.65817000
mean anomaly at epoch: 247.2172°
orbit number at epoch: 98073

The dashed part of the orbit path shows where the satellite is in the earth's shadow,  

DLR